Weather History for KFWA - March, 2013

Change the Weather History Date:

Saturday, March 30, 2013

  Actual Average Record
Temperature  
Mean Temperature 41 °F 44 °F  
Max Temperature 55 °F 54 °F 79 °F (1986)
Min Temperature 27 °F 33 °F 15 °F (1923)
Degree Days  
Heating Degree Days 24 21  
Month to date heating degree days 966 806  
Since 1 July heating degree days 5357 5404  
Cooling Degree Days 0 0  
Month to date cooling degree days 0 0  
Year to date cooling degree days 0 0  
Moisture  
Dew Point 29 °F    
Average Humidity 67    
Maximum Humidity 92    
Minimum Humidity 42    
Precipitation  
Precipitation 0.00 in 0.11 in 1.40 in (1922)
Month to date precipitation 2.34 2.60  
Year to date precipitation 7.63 6.90  
Snow  
Snow 0.00 in 0.00 in 1.80 in (1942)
Month to date snowfall 18.1 4.0  
Since 1 July snowfall 38.5 32.4  
Snow Depth 0.00 in    
Sea Level Pressure  
Sea Level Pressure 30.14 in    
Wind  
Wind Speed 5 mph (South)    
Max Wind Speed 15 mph    
Max Gust Speed 20 mph    
Visibility 10 miles    
Events      
T = Trace of Precipitation, MM = Missing Value Source: NWS Daily Summary

Daily Weather History Graph

Daily Weather History Graph

Search for Another Location

Airport or City:

Trip Planner

Search our weather history database for the weather conditions in past years. The results will help you decide how hot, cold, wet, or windy it might be!

Date:

Astronomy

Mar. 30, 2013 Rise Set
Actual Time 7:27 AM EDT 8:03 PM EDT
Civil Twilight 6:59 AM EDT 8:31 PM EDT
Nautical Twilight 6:26 AM EDT 9:04 PM EDT
Astronomical Twilight 5:53 AM EDT 9:38 PM EDT
Moon No Moon Rise 9:19 AM EDT (3/30)
Length of Visible Light 13h 32m
Length of Day
12h 36m
Waning Gibbous, 86% of the Moon is Illuminated
Mar 30
Waning Gibbous
Apr 3
Last Quarter
Apr 10
New
Apr 18
First Quarter
Apr 25
Full

Hourly Weather History & Observations

Time (EDT) Temp. Windchill Dew Point Humidity Pressure Visibility Wind Dir Wind Speed Gust Speed Precip Events Conditions
12:54 AM 36.0 °F - 21.9 °F 57% 30.25 in 10.0 mi Calm Calm - N/A   Clear
1:54 AM 32.0 °F - 25.0 °F 75% 30.25 in 10.0 mi Calm Calm - N/A   Clear
2:54 AM 30.0 °F - 25.0 °F 82% 30.25 in 10.0 mi Calm Calm - N/A   Clear
3:54 AM 28.9 °F - 25.0 °F 85% 30.25 in 10.0 mi Calm Calm - N/A   Clear
4:54 AM 28.9 °F - 23.0 °F 78% 30.24 in 10.0 mi Calm Calm - N/A   Clear
5:54 AM 28.9 °F - 23.0 °F 78% 30.23 in 10.0 mi Calm Calm - N/A   Partly Cloudy
6:54 AM 28.0 °F - 24.1 °F 85% 30.24 in 10.0 mi Calm Calm - N/A   Scattered Clouds
7:54 AM 27.0 °F 21.6 °F 24.1 °F 89% 30.26 in 10.0 mi South 4.6 mph - N/A   Partly Cloudy
8:54 AM 34.0 °F - 28.0 °F 79% 30.24 in 10.0 mi Calm Calm - N/A   Partly Cloudy
9:54 AM 39.9 °F 36.7 °F 28.0 °F 63% 30.22 in 10.0 mi South 4.6 mph - N/A   Partly Cloudy
10:54 AM 46.0 °F 41.0 °F 27.0 °F 47% 30.22 in 10.0 mi SSW 10.4 mph - N/A   Scattered Clouds
11:54 AM 48.9 °F - 27.0 °F 43% 30.19 in 10.0 mi SSW 6.9 mph - N/A   Partly Cloudy
12:54 PM 52.0 °F - 33.1 °F 49% 30.16 in 10.0 mi SSW 10.4 mph - N/A   Scattered Clouds
1:54 PM 53.1 °F - 32.0 °F 45% 30.13 in 10.0 mi SSW 10.4 mph - N/A   Scattered Clouds
2:54 PM 54.0 °F - 33.1 °F 45% 30.12 in 10.0 mi SSW 10.4 mph - N/A   Mostly Cloudy
3:54 PM 54.0 °F - 33.1 °F 45% 30.09 in 10.0 mi SW 8.1 mph - N/A   Overcast
4:54 PM 53.1 °F - 32.0 °F 45% 30.06 in 10.0 mi SSW 10.4 mph - N/A   Overcast
5:54 PM 54.0 °F - 32.0 °F 43% 30.04 in 10.0 mi SSW 6.9 mph - N/A   Overcast
6:54 PM 52.0 °F - 34.0 °F 50% 30.03 in 10.0 mi SSW 8.1 mph - N/A   Overcast
7:54 PM 50.0 °F - 35.1 °F 57% 30.01 in 10.0 mi South 4.6 mph - N/A   Overcast
8:54 PM 46.9 °F - 36.0 °F 66% 29.99 in 10.0 mi SE 4.6 mph - N/A   Overcast
9:54 PM 46.0 °F 44.8 °F 35.1 °F 66% 29.97 in 10.0 mi SE 3.5 mph - N/A   Overcast
10:54 PM 44.1 °F 41.5 °F 36.0 °F 73% 29.96 in 10.0 mi SE 4.6 mph - N/A   Overcast
11:54 PM 42.1 °F - 35.1 °F 76% 29.94 in 9.0 mi Calm Calm - N/A   Overcast